sat.trackr.live / text

‹ back to catalog

STARLINK-4008

NORAD 52622 · 2022-052AA

PAYLOAD ACTIVE UNKNOWN

§ Identity

Operator
Country
US
Launch date
2022-05-14
Launch site
AFETR
Launch vehicle
Mass (kg)
RCS (m²)

Purposes: comms

External: N2YO · Heavens-Above · Gunter

§ Orbital elements

Epoch: 2026-05-25T03:25:02.605728Z

Period
95.44 min
Inclination
53.2128°
Eccentricity
0.0001626
Mean motion
15.08835430 rev/d
Perigee alt
538.6 km
Apogee alt
540.9 km
Semi-major
6,917.9 km
B*
3.3774e-5
RAAN
300.9103°
Arg perigee
88.1112°
Mean anomaly
272.0066°
Rev number
22,232

§ Raw data

STARLINK-40081 52622U 22052AA  26145.14239127  .00000249  00000+0  33774-4 0  99972 52622  53.2128 300.9103 0001626  88.1112 272.0066 15.08835430222323

JSON: /api/v1/satellites/52622 · /tle

For live sub-satellite position, see the globe view (requires WebGL).

§ Visibility from observer

Set your observer location to see the next 7 days of passes ≥ 10°. The values pass through the URL so the page stays shareable.

No JS? Fill the form by hand. The geolocation button needs JavaScript.